Wetbulb
67.85 65.92 63.41 61.94 55.04 55.36 51.33 53.84 57.26 56.96 56.73 55.52 55.40 55.54 55.15 55.97 56.33 51.66 64.11 67.43 67.97 65.60 68.49 72.61 74.03 73.22 72.88 72.76 72.37 71.95 71.36 70.80 69.71 69.14 68.61 68.16 67.73 67.28 66.91 66.75 66.49 65.91 66.07 66.18 66.61 66.50 66.12 65.57 66.42
66.21 62.82 61.94 61.91 53.98 50.16 51.87 56.15 55.92 57.25 58.67 58.66 54.29 53.18 52.34 53.36 57.06 59.93 64.90 67.12 67.36 66.42 69.10 70.72 74.01 73.48 73.35 73.05 72.75 72.26 71.94 71.31 70.50 69.58 69.15 68.96 68.78 68.27 68.29 67.95 67.81 67.57 67.55 67.37 67.72 67.64 67.32 67.11 66.07
63.35 62.23 60.65 57.91 55.01 50.96 52.00 55.83 57.01 58.14 58.75 57.53 53.38 54.84 54.45 55.09 59.26 61.86 67.33 67.99 66.37 67.12 69.94 72.03 74.06 73.56 73.43 73.35 73.13 72.71 72.29 71.89 70.68 70.16 69.86 70.12 69.80 69.71 69.86 69.26 68.76 68.35 68.14 67.92 68.02 67.87 68.15 68.21 67.90
60.89 62.39 60.82 53.62 51.33 54.67 54.70 57.16 57.67 57.74 58.37 55.59 54.62 54.04 56.66 59.59 60.17 63.28 67.87 68.84 66.29 66.77 69.62 71.84 74.11 73.81 73.78 73.48 73.21 72.86 72.61 72.27 71.77 70.97 71.01 70.51 70.53 70.58 70.19 69.62 69.41 68.77 68.71 68.53 68.48 68.59 68.59 69.07 68.52
63.49 61.59 53.51 52.15 52.37 54.99 56.72 58.46 57.93 56.47 56.34 56.52 54.54 54.15 55.68 58.65 61.63 63.81 67.56 68.65 66.93 66.73 68.73 70.68 73.88 74.13 74.01 73.81 73.38 73.28 73.18 72.81 72.49 71.90 71.52 71.39 71.23 70.56 70.22 69.88 69.49 69.36 68.92 68.62 68.58 68.72 69.58 69.71 69.16
58.48 58.59 51.06 48.40 51.02 54.54 56.48 58.28 57.22 56.75 55.98 55.53 53.86 54.16 56.61 59.68 61.48 63.98 67.33 68.52 68.61 67.68 68.81 70.67 73.44 74.07 73.73 73.66 73.56 73.63 73.27 73.00 72.73 72.61 72.14 71.90 71.21 70.71 69.92 69.20 68.91 68.86 68.82 68.46 68.40 68.90 69.50 69.32 69.28
56.44 54.78 49.41 50.09 49.79 52.06 54.94 58.04 56.21 55.77 55.68 55.49 55.88 53.77 57.73 58.75 61.70 64.84 67.27 68.55 68.42 69.04 68.77 70.96 72.12 73.72 73.80 73.60 73.60 73.52 73.39 72.99 72.84 72.76 72.66 71.69 71.01 70.69 69.22 68.60 68.26 68.16 68.31 67.94 67.93 68.69 68.52 68.31 68.34
58.72 55.68 49.25 50.56 48.86 49.98 56.13 56.34 56.73 56.66 56.01 57.45 57.12 54.35 56.51 59.50 61.54 65.32 67.39 67.50 67.48 68.10 69.11 70.04 71.65 72.08 71.90 72.19 73.94 73.66 73.46 73.13 73.17 72.90 71.54 70.47 69.56 68.38 67.51 67.88 66.87 66.97 66.99 67.13 67.39 67.67 67.93 67.69 67.86
57.60 51.26 47.47 48.42 49.33 51.39 56.08 55.30 56.75 57.83 57.59 57.62 58.71 58.48 59.98 60.20 60.75 63.72 64.90 65.40 66.20 66.58 67.95 68.92 69.67 71.00 71.46 71.43 72.18 73.33 72.66 72.14 72.04 70.56 69.61 69.51 67.85 67.59 67.19 66.92 66.60 66.38 65.92 65.78 66.30 66.61 66.68 67.08 66.98
55.57 51.04 49.98 53.17 53.64 53.40 54.70 55.23 56.11 56.04 56.66 57.40 58.24 59.62 59.51 59.61 60.14 61.53 62.92 63.09 64.41 65.11 66.57 67.82 69.08 70.35 71.14 70.40 71.32 70.79 69.54 69.03 69.50 69.19 68.93 68.54 68.21 67.78 66.46 66.16 66.07 65.59 65.11 65.54 66.04 66.31 66.33 67.06 67.37
55.63 51.36 54.26 54.36 55.30 55.73 55.17 55.38 57.40 55.37 54.27 56.95 57.17 59.34 61.14 60.50 60.20 60.44 61.97 62.80 63.55 64.99 66.05 66.91 68.61 70.35 70.24 68.98 68.36 66.82 67.38 67.54 67.96 68.68 69.06 68.33 67.41 67.65 66.96 66.42 65.99 65.86 65.26 65.96 65.76 66.13 65.75 65.70 66.34
52.12 54.92 55.73 56.12 56.67 55.38 54.48 56.59 55.43 56.63 56.89 59.41 60.06 60.64 60.58 59.97 59.62 59.67 60.39 62.20 63.23 63.70 64.88 65.96 67.62 68.44 68.68 67.10 65.78 65.92 65.68 66.15 66.10 66.67 68.25 67.81 66.71 66.75 66.10 65.52 65.39 65.25 64.63 64.58 64.84 64.48 64.65 64.83 65.44
52.66 54.18 55.99 57.02 56.97 56.49 56.75 55.04 55.14 55.50 58.26 59.79 60.41 60.41 59.45 59.55 60.36 60.92 61.11 62.20 62.94 61.97 63.20 64.40 66.50 66.81 66.41 66.24 65.91 65.74 65.75 65.64 66.02 65.56 66.03 66.23 65.91 66.17 65.70 64.95 64.68 64.57 64.60 64.17 64.20 64.13 63.97 64.17 64.86
53.99 53.68 54.18 55.61 55.56 55.88 54.18 54.29 54.45 54.97 57.53 57.07 57.51 58.17 58.94 59.37 60.02 60.65 60.60 60.96 61.55 61.25 61.37 63.65 64.65 65.73 65.74 65.81 66.41 65.97 66.08 66.03 65.40 65.40 65.80 66.40 66.00 65.67 64.92 64.56 64.40 64.51 64.65 64.52 64.20 63.89 63.62 63.64 64.58
51.64 48.92 51.13 51.42 52.91 51.65 52.13 48.39 49.24 53.44 54.99 55.09 56.20 56.96 57.99 59.30 59.97 59.84 61.92 61.87 62.46 60.97 61.63 62.43 63.97 65.13 65.40 65.90 65.98 65.94 65.68 65.18 65.05 65.25 66.29 66.07 66.07 65.68 65.35 64.78 64.66 64.54 64.15 65.27 64.46 64.54 63.96 63.52 64.20
47.03 47.01 43.98 49.22 49.54 49.73 49.61 44.69 50.19 53.55 53.77 53.77 55.04 56.37 57.30 58.80 59.89 60.97 61.92 62.69 62.41 60.53 61.38 62.51 62.55 64.31 65.49 65.64 65.60 65.25 65.34 65.20 65.46 66.21 66.51 66.53 66.52 66.31 65.98 65.05 64.77 65.52 64.78 64.18 63.92 63.95 62.74 62.92 63.12
45.60 42.29 42.87 45.07 48.49 48.54 48.94 46.24 50.63 53.10 52.73 52.81 54.16 55.25 56.15 57.65 59.66 61.79 61.79 61.59 60.20 61.15 62.40 62.43 63.76 63.97 65.01 65.64 65.34 65.71 66.23 65.88 66.17 66.48 66.46 66.52 66.24 66.34 65.73 65.44 65.08 65.51 64.23 63.94 63.77 63.55 63.24 62.16 62.78
40.65 40.33 42.92 42.83 47.50 47.15 46.51 46.69 49.67 51.99 52.48 52.85 54.32 55.47 56.38 57.23 58.82 61.55 60.86 60.21 60.71 62.17 63.24 63.85 64.09 64.97 65.18 64.98 65.33 65.78 65.57 65.74 66.22 66.24 66.43 66.16 66.23 65.88 65.84 65.45 65.12 64.61 64.03 63.60 62.78 62.65 62.89 62.58 63.35
46.42 44.34 43.94 45.99 47.30 46.20 46.91 47.63 49.63 52.17 52.53 52.68 53.82 54.82 56.14 57.44 60.31 58.48 58.20 59.59 60.59 61.91 62.52 63.83 63.62 64.52 64.18 64.13 64.08 64.68 64.09 65.02 65.45 65.88 66.31 65.71 65.83 65.59 65.49 64.97 64.79 64.42 63.62 63.68 63.46 62.28 62.28 62.37 63.50
43.04 42.13 42.57 45.22 47.31 46.67 46.92 46.54 49.93 51.14 51.34 52.93 53.66 54.45 55.94 57.67 58.45 57.22 56.97 58.78 60.33 61.03 62.30 63.13 63.99 64.25 64.75 65.11 65.68 66.31 66.05 65.61 65.81 66.07 66.05 65.68 64.84 65.43 65.24 65.06 63.99 64.41 63.18 63.13 62.65 62.69 61.26 62.01 62.90
42.05 41.63 42.20 42.32 46.44 47.82 46.41 45.14 47.53 50.83 52.28 52.80 54.74 56.10 57.17 57.67 57.74 57.01 56.76 58.62 60.01 60.80 62.21 63.21 64.08 64.51 65.34 65.86 65.27 65.42 64.50 64.55 63.94 64.35 65.06 65.18 64.42 65.11 65.51 64.61 64.24 64.23 63.31 61.94 62.48 63.00 63.07 61.21 62.42
39.94 44.97 44.03 43.24 42.08 40.04 46.51 38.60 45.93 48.07 48.78 52.20 54.76 56.46 56.91 56.10 57.16 57.21 57.38 58.18 59.60 61.17 63.05 63.78 64.28 64.75 65.79 65.69 65.18 64.88 63.62 62.90 64.08 64.46 64.96 64.54 64.62 64.64 64.88 64.64 64.63 63.88 63.19 62.62 62.71 63.48 64.41 63.90 59.77
42.49 46.81 44.65 43.84 42.67 42.57 42.93 39.65 44.44 48.06 46.67 49.34 52.71 56.12 56.78 56.27 57.20 56.88 57.44 58.80 60.40 61.55 62.41 63.65 64.46 65.54 65.55 65.67 65.53 64.40 63.47 64.01 64.43 64.61 63.61 64.47 65.68 64.99 64.71 64.98 64.00 64.13 63.29 63.40 63.37 63.72 63.54 64.09 63.64
47.17 45.39 45.17 44.97 43.28 36.48 41.71 40.37 41.76 45.05 46.88 49.96 53.38 55.80 55.32 56.24 56.31 56.75 58.25 59.56 60.36 61.80 62.47 63.49 64.31 65.10 65.23 65.12 64.92 64.06 63.36 62.82 63.40 63.79 64.19 63.73 64.24 64.85 65.11 65.19 65.03 64.71 63.82 63.38 63.31 64.25 64.09 64.01 64.65
45.79 42.97 36.37 34.48 35.00 35.44 43.50 40.42 41.78 48.34 50.60 52.16 53.33 55.48 55.76 56.77 56.23 56.34 57.17 58.54 59.62 60.74 62.01 63.27 64.25 64.19 64.92 64.60 64.07 63.30 63.36 62.92 62.97 63.35 63.83 61.36 61.91 64.29 65.03 65.55 65.38 64.52 64.63 63.95 63.93 64.01 64.34 64.33 64.89
42.98 43.17 38.33 32.04 34.16 36.75 42.35 37.51 41.59 50.49 52.10 53.59 54.70 56.13 56.21 56.42 56.68 56.66 57.86 58.86 59.50 60.89 62.18 62.93 63.49 63.79 64.36 64.42 63.55 63.60 63.14 64.15 64.18 63.78 64.01 63.60 63.57 65.02 65.47 65.57 65.64 64.95 64.48 64.01 64.67 63.94 64.16 64.78 64.12
42.16 39.85 45.13 40.24 40.88 38.33 40.54 43.60 49.15 51.56 52.14 53.19 53.59 54.77 55.66 56.40 56.43 56.74 57.81 58.88 60.03 60.96 62.52 62.96 63.28 63.78 63.90 64.16 63.83 63.67 63.83 63.75 63.33 63.75 65.09 64.97 65.40 65.29 65.21 65.42 64.78 64.75 64.26 63.99 64.46 63.68 63.90 62.55 61.89
44.46 46.11 37.69 40.11 33.21 31.55 37.94 41.06 42.50 48.57 50.44 53.25 53.94 54.68 55.29 56.24 56.35 56.69 57.64 58.79 60.26 61.75 62.83 63.08 63.59 63.55 63.98 64.23 64.18 64.01 64.58 64.65 63.47 64.64 64.06 64.47 65.34 65.18 64.97 65.30 64.57 64.87 64.16 64.13 64.56 63.83 64.31 63.34 63.33
41.23 40.87 42.11 42.37 40.49 35.08 33.45 39.04 51.04 51.16 52.82 53.70 55.56 56.31 55.31 55.99 56.38 56.92 58.01 59.11 60.51 62.03 62.04 62.51 62.63 62.77 63.59 63.80 64.11 64.10 64.75 64.26 63.73 64.20 64.61 64.76 65.29 64.88 64.60 64.84 64.46 64.40 64.17 64.14 64.13 63.90 63.81 63.41 63.54
43.89 42.65 42.82 37.86 36.15 39.37 39.62 39.74 49.98 52.88 52.99 54.58 55.57 55.36 55.93 56.98 57.28 57.76 58.49 58.95 59.70 60.89 61.46 61.90 62.60 62.61 63.67 63.70 64.11 64.09 64.16 63.34 63.56 64.33 64.47 64.89 64.71 64.82 64.92 64.81 64.19 63.82 63.87 63.72 62.85 62.82 62.41 62.11 61.63
MSLP
1014.23 1014.44 1014.37 1014.04 1013.85 1012.76 1011.32 1010.38 1009.75 1008.98 1008.59 1008.51 1008.61 1008.54 1008.20 1008.16 1008.24 1008.19 1008.41 1008.84 1009.13 1009.52 1010.46 1011.24 1011.67 1012.16 1012.59 1012.93 1013.27 1013.59 1013.86 1014.06 1014.33 1014.50 1014.60 1014.76 1014.91 1015.12 1015.22 1015.33 1015.35 1015.50 1015.51 1015.46 1015.76 1015.82 1015.72 1015.88 1015.83
1014.17 1014.46 1014.26 1013.46 1012.75 1011.66 1010.52 1009.69 1008.94 1008.64 1008.40 1008.34 1008.24 1008.19 1008.22 1007.62 1007.81 1007.63 1007.92 1008.50 1009.00 1009.39 1010.19 1010.67 1011.28 1011.66 1012.17 1012.70 1013.04 1013.37 1013.72 1013.93 1014.10 1014.25 1014.35 1014.47 1014.56 1014.66 1014.94 1015.13 1015.19 1015.26 1015.23 1015.31 1015.48 1015.54 1015.62 1015.83 1015.71
1014.05 1013.78 1013.10 1012.67 1011.96 1010.59 1009.66 1008.90 1008.35 1008.31 1008.11 1008.05 1007.86 1007.88 1007.72 1007.41 1007.52 1007.25 1007.47 1008.30 1008.89 1009.42 1009.85 1010.37 1010.89 1011.35 1011.73 1012.27 1012.86 1013.14 1013.37 1013.66 1013.90 1014.06 1014.17 1014.28 1014.37 1014.53 1014.55 1014.73 1014.94 1014.94 1015.03 1014.98 1015.15 1015.28 1015.33 1015.45 1015.58
1013.54 1013.38 1012.99 1012.21 1010.98 1010.34 1009.39 1008.56 1008.38 1007.80 1007.44 1007.75 1007.71 1007.43 1007.57 1006.97 1007.13 1007.10 1007.39 1008.01 1008.55 1009.18 1009.54 1010.11 1010.67 1011.21 1011.57 1012.05 1012.40 1012.85 1013.19 1013.42 1013.64 1013.79 1013.87 1013.99 1014.15 1014.27 1014.41 1014.51 1014.58 1014.72 1014.76 1014.74 1014.88 1014.92 1014.92 1015.15 1015.32
1013.10 1012.52 1011.96 1011.51 1010.68 1009.93 1009.17 1008.45 1008.43 1007.87 1007.78 1007.40 1007.54 1007.15 1007.15 1006.90 1007.17 1007.40 1007.69 1008.14 1008.39 1008.85 1009.33 1009.82 1010.48 1010.87 1011.43 1011.72 1012.18 1012.64 1012.96 1013.24 1013.43 1013.64 1013.71 1013.74 1013.89 1013.96 1014.13 1014.26 1014.26 1014.35 1014.43 1014.47 1014.54 1014.54 1014.62 1014.83 1014.97
1012.30 1012.33 1011.71 1010.72 1010.11 1009.33 1008.64 1007.96 1007.93 1007.51 1007.43 1007.27 1007.30 1007.10 1006.79 1006.82 1007.24 1007.37 1007.75 1007.98 1008.29 1008.52 1009.07 1009.55 1010.22 1010.64 1011.00 1011.60 1012.04 1012.43 1012.76 1012.99 1013.22 1013.49 1013.55 1013.57 1013.67 1013.81 1013.84 1013.87 1013.89 1013.95 1014.02 1014.07 1014.16 1014.21 1014.32 1014.57 1014.75
1011.61 1011.68 1011.05 1010.45 1009.65 1008.92 1008.04 1007.61 1007.42 1007.14 1007.06 1007.11 1007.27 1006.83 1006.52 1006.72 1007.18 1007.39 1007.41 1007.85 1008.31 1008.74 1009.22 1009.56 1009.82 1010.38 1010.96 1011.45 1011.82 1012.16 1012.55 1012.80 1012.97 1013.22 1013.34 1013.45 1013.54 1013.63 1013.63 1013.70 1013.67 1013.62 1013.74 1013.80 1013.83 1013.89 1014.10 1014.36 1014.50
1011.91 1011.36 1010.69 1010.09 1009.01 1008.00 1007.55 1007.44 1007.41 1006.84 1006.80 1007.16 1007.21 1006.62 1006.39 1006.87 1007.36 1007.60 1007.84 1007.99 1008.21 1008.55 1008.90 1009.29 1009.62 1009.96 1010.41 1010.86 1011.47 1011.83 1012.25 1012.56 1012.75 1013.01 1013.12 1013.28 1013.40 1013.50 1013.56 1013.60 1013.58 1013.58 1013.63 1013.63 1013.61 1013.71 1013.91 1014.00 1014.25
1012.07 1011.41 1009.91 1009.06 1008.59 1007.40 1007.58 1007.45 1007.67 1007.52 1007.08 1006.93 1006.57 1006.31 1006.46 1007.09 1007.49 1007.53 1007.93 1008.09 1007.94 1008.17 1008.61 1009.14 1009.26 1009.62 1010.07 1010.40 1010.88 1011.54 1011.94 1012.17 1012.49 1012.70 1012.91 1013.07 1013.07 1013.15 1013.31 1013.38 1013.53 1013.58 1013.60 1013.62 1013.54 1013.55 1013.69 1013.80 1013.92
1011.12 1010.39 1009.27 1008.14 1007.75 1007.45 1007.67 1007.55 1007.77 1007.73 1006.96 1005.97 1006.10 1006.12 1006.51 1007.02 1007.18 1007.05 1007.07 1007.01 1007.15 1007.40 1007.92 1008.45 1008.96 1009.44 1009.97 1010.22 1010.65 1011.03 1011.43 1011.67 1011.98 1012.20 1012.48 1012.68 1012.85 1013.06 1013.21 1013.24 1013.42 1013.38 1013.37 1013.38 1013.30 1013.29 1013.37 1013.46 1013.07
1009.94 1009.28 1008.37 1008.07 1007.84 1008.00 1007.56 1007.31 1007.71 1007.35 1006.30 1005.35 1005.69 1005.52 1005.60 1006.30 1006.58 1006.48 1006.04 1005.90 1005.76 1006.41 1007.48 1008.23 1008.84 1009.37 1009.78 1010.10 1010.48 1010.96 1011.29 1011.57 1011.86 1012.10 1012.31 1012.48 1012.68 1012.78 1012.83 1012.79 1012.92 1012.93 1013.10 1012.92 1012.99 1013.06 1013.04 1012.84 1012.94
1008.82 1008.89 1008.60 1007.60 1008.04 1008.11 1007.56 1007.47 1007.14 1007.26 1005.98 1005.41 1005.51 1005.50 1005.33 1005.38 1005.69 1005.63 1005.42 1005.27 1005.45 1006.17 1006.81 1007.77 1008.44 1009.15 1009.65 1009.98 1010.38 1010.69 1011.04 1011.28 1011.40 1011.73 1012.13 1012.25 1012.36 1012.55 1012.62 1012.59 1012.59 1012.78 1012.64 1012.75 1012.90 1012.85 1012.88 1012.90 1012.86
1007.62 1007.90 1008.17 1007.94 1007.91 1007.94 1007.70 1007.23 1006.84 1006.23 1005.45 1005.17 1005.19 1004.90 1004.77 1004.68 1004.63 1004.72 1004.80 1004.86 1005.22 1006.00 1006.89 1007.29 1008.08 1008.94 1009.48 1010.06 1010.33 1010.69 1010.88 1010.91 1011.09 1011.58 1011.76 1011.97 1012.06 1012.21 1012.28 1012.40 1012.50 1012.39 1012.38 1012.48 1012.62 1012.66 1012.59 1012.56 1012.52
1006.81 1007.63 1007.67 1007.75 1007.53 1007.18 1007.05 1006.30 1006.89 1005.59 1004.94 1004.28 1004.46 1004.23 1003.87 1003.75 1003.60 1004.01 1004.35 1004.06 1004.69 1005.40 1006.46 1006.99 1007.71 1008.55 1009.18 1009.79 1010.29 1010.57 1010.72 1010.70 1011.09 1011.30 1011.41 1011.70 1011.83 1011.92 1012.00 1012.15 1012.28 1012.18 1012.15 1012.15 1012.22 1012.25 1012.38 1012.31 1012.32
1007.43 1007.48 1007.59 1007.77 1007.17 1006.74 1006.69 1005.94 1005.44 1004.70 1004.33 1004.35 1003.92 1003.39 1002.99 1002.64 1002.70 1003.00 1002.97 1003.47 1003.86 1004.92 1006.12 1007.20 1007.68 1008.31 1008.89 1009.57 1010.10 1010.39 1010.47 1010.63 1010.90 1010.96 1011.12 1011.30 1011.48 1011.57 1011.73 1011.71 1011.74 1011.70 1011.97 1011.96 1012.14 1012.23 1012.28 1012.21 1012.20
1007.59 1007.37 1006.64 1006.38 1006.51 1006.46 1006.74 1004.42 1004.61 1003.97 1004.13 1003.70 1003.32 1002.90 1002.51 1002.21 1002.06 1002.11 1002.17 1002.80 1003.76 1004.65 1005.39 1006.49 1007.19 1007.72 1008.60 1009.27 1009.77 1010.00 1010.23 1010.45 1010.54 1010.66 1010.74 1010.86 1010.97 1011.13 1011.18 1011.16 1011.13 1011.23 1011.53 1011.55 1011.75 1011.74 1011.80 1011.75 1011.88
1007.12 1005.86 1005.97 1005.88 1005.91 1005.74 1005.52 1003.92 1003.98 1003.78 1003.64 1003.20 1002.87 1002.38 1001.97 1001.55 1001.34 1001.61 1001.80 1002.28 1003.25 1003.97 1004.83 1005.97 1006.85 1007.28 1008.23 1009.05 1009.46 1009.84 1010.12 1010.27 1010.21 1010.32 1010.34 1010.45 1010.58 1010.67 1010.65 1010.58 1010.62 1011.02 1011.13 1011.22 1011.31 1011.47 1011.47 1011.42 1011.61
1005.32 1005.36 1005.47 1005.31 1004.81 1005.01 1004.35 1003.77 1003.99 1003.17 1003.38 1002.56 1002.14 1001.68 1001.49 1001.18 1000.71 1000.91 1001.39 1002.17 1002.98 1003.57 1004.24 1005.35 1006.47 1007.14 1008.05 1008.80 1009.34 1009.62 1010.00 1009.98 1009.88 1009.92 1009.98 1010.06 1010.13 1010.16 1010.11 1010.19 1010.29 1010.58 1010.68 1010.82 1011.27 1011.26 1011.32 1011.24 1011.36
1004.96 1004.96 1004.51 1004.39 1004.57 1004.76 1003.91 1003.50 1003.16 1002.89 1002.66 1002.01 1001.40 1001.11 1000.88 1000.50 1000.18 1000.98 1001.59 1002.41 1003.11 1003.75 1004.41 1005.23 1006.21 1007.26 1007.82 1008.62 1008.97 1009.33 1009.42 1009.45 1009.51 1009.57 1009.58 1009.61 1009.68 1009.70 1009.81 1009.80 1010.01 1010.33 1010.40 1010.49 1010.86 1010.99 1010.95 1011.18 1011.25
1005.02 1004.48 1003.91 1004.32 1004.54 1004.64 1003.71 1002.96 1002.65 1002.15 1001.59 1001.24 1000.75 1000.34 1000.08 999.98 1000.31 1001.45 1002.17 1002.85 1003.37 1003.98 1004.74 1005.25 1006.25 1007.16 1007.66 1008.31 1008.69 1008.97 1009.19 1009.26 1009.26 1009.27 1009.21 1009.25 1009.31 1009.36 1009.46 1009.58 1009.85 1010.02 1010.15 1010.49 1010.67 1010.63 1010.74 1011.00 1011.18
1004.16 1003.82 1003.94 1004.01 1004.50 1004.34 1003.76 1002.40 1001.74 1001.05 1001.02 1000.37 999.94 999.73 999.59 999.90 1000.41 1001.57 1002.36 1003.03 1003.61 1004.27 1004.98 1005.54 1006.29 1006.98 1007.74 1008.35 1008.74 1009.01 1009.28 1009.14 1008.99 1008.91 1008.87 1009.13 1009.14 1009.07 1009.20 1009.43 1009.62 1009.84 1010.02 1010.11 1010.44 1010.46 1010.46 1010.52 1011.10
1003.46 1004.08 1004.30 1004.62 1005.07 1003.65 1004.09 1001.43 1000.94 1000.80 999.99 999.44 998.92 998.89 999.19 999.68 1000.61 1001.52 1002.25 1003.05 1003.64 1004.34 1005.12 1005.64 1006.29 1006.98 1007.79 1008.28 1008.45 1008.64 1008.65 1008.50 1008.66 1008.75 1008.93 1008.98 1008.96 1008.96 1008.98 1009.25 1009.35 1009.65 1009.76 1010.01 1010.22 1010.40 1010.36 1010.39 1010.71
1002.28 1003.72 1004.08 1004.89 1004.81 1004.61 1003.83 1002.93 999.27 1000.42 999.31 998.34 997.88 998.16 998.90 999.94 1000.52 1001.57 1002.22 1002.96 1003.81 1004.53 1005.19 1005.84 1006.45 1007.10 1007.74 1008.07 1008.20 1008.38 1008.46 1008.47 1008.60 1008.73 1008.84 1008.84 1008.79 1008.86 1008.92 1008.98 1009.19 1009.45 1009.66 1009.92 1010.11 1010.23 1010.29 1010.35 1010.47
1003.19 1003.66 1004.14 1004.40 1004.47 1003.65 1003.14 1002.99 997.08 998.68 998.32 997.47 997.19 997.68 998.97 999.84 1000.91 1001.77 1002.69 1003.31 1004.01 1004.62 1005.27 1005.95 1006.59 1007.19 1007.62 1007.89 1008.12 1008.15 1008.15 1008.36 1008.45 1008.56 1008.59 1008.64 1008.65 1008.71 1008.79 1008.78 1009.04 1009.33 1009.59 1009.82 1009.96 1010.03 1010.22 1010.28 1010.38
1002.50 1002.95 1002.99 1003.60 1003.25 1001.46 1002.08 1001.94 997.86 997.77 997.69 997.41 997.01 997.49 998.85 1000.09 1001.09 1001.88 1002.64 1003.35 1004.09 1004.70 1005.34 1006.00 1006.60 1007.05 1007.46 1007.69 1007.92 1008.02 1008.16 1008.35 1008.45 1008.49 1008.44 1008.59 1008.57 1008.41 1008.48 1008.67 1008.90 1009.13 1009.48 1009.70 1009.87 1009.98 1010.21 1010.31 1010.42
1000.39 1000.84 1000.50 1000.84 1000.67 1000.97 1001.20 999.86 997.08 996.92 996.31 996.44 996.82 997.44 998.90 1000.13 1001.08 1001.94 1002.58 1003.35 1004.13 1004.72 1005.33 1005.95 1006.48 1006.95 1007.32 1007.59 1007.79 1008.06 1008.26 1008.22 1008.39 1008.48 1008.43 1008.48 1008.47 1008.36 1008.46 1008.59 1008.82 1009.09 1009.38 1009.59 1009.82 1009.96 1010.18 1010.41 1010.56
999.56 999.87 1000.46 1000.70 1000.83 1000.27 999.06 998.74 997.30 996.29 995.91 995.99 996.30 997.48 998.74 1000.06 1001.01 1001.99 1002.76 1003.42 1004.13 1004.78 1005.35 1005.91 1006.39 1006.81 1007.17 1007.48 1007.73 1008.00 1008.16 1008.29 1008.33 1008.43 1008.43 1008.41 1008.44 1008.42 1008.40 1008.55 1008.80 1009.11 1009.35 1009.56 1009.82 1009.88 1010.28 1010.68 1010.91
997.75 999.49 1000.18 999.90 999.29 999.21 998.19 997.47 995.96 995.50 995.40 995.40 995.99 997.06 998.60 999.94 1001.02 1001.97 1002.76 1003.34 1004.08 1004.67 1005.35 1006.04 1006.38 1006.64 1007.02 1007.39 1007.62 1007.77 1008.08 1008.23 1008.41 1008.35 1008.34 1008.41 1008.43 1008.39 1008.42 1008.63 1008.86 1009.11 1009.40 1009.66 1009.95 1010.18 1010.50 1010.64 1010.87
997.77 998.14 998.20 998.52 998.57 997.81 997.43 996.40 995.52 994.76 994.67 994.99 995.55 996.82 998.17 999.54 1000.62 1001.62 1002.44 1003.26 1004.04 1004.59 1005.23 1005.92 1006.30 1006.60 1006.96 1007.30 1007.55 1007.76 1007.91 1008.10 1008.31 1008.37 1008.36 1008.40 1008.40 1008.38 1008.43 1008.68 1008.84 1009.07 1009.37 1009.78 1010.15 1010.35 1010.61 1010.65 1010.94
996.91 996.79 997.07 996.84 997.96 997.78 997.05 995.96 995.34 994.87 995.02 995.37 996.01 996.95 998.24 999.51 1000.44 1001.39 1002.09 1002.99 1003.85 1004.48 1005.07 1005.64 1006.13 1006.35 1006.76 1007.19 1007.51 1007.69 1007.87 1008.02 1008.23 1008.38 1008.39 1008.43 1008.32 1008.42 1008.51 1008.75 1009.02 1009.28 1009.49 1009.96 1010.29 1010.57 1010.93 1010.96 1011.04
Wind_Speed
11 9 3 3 3 2 3 3 3 5 3 2 7 5 9 2 5 6 2 11 8 19 17 22 22 21 19 18 16 15 14 13 13 12 11 11 10 10 9 8 7 6 6 6 6 5 4 5 5
10 5 2 1 3 4 3 4 7 2 9 7 5 4 3 6 4 4 3 14 11 18 16 20 23 22 20 18 17 16 15 14 14 13 13 12 12 12 12 11 10 9 8 7 8 7 6 7 6
11 3 3 3 3 6 3 8 3 5 9 4 3 3 4 4 4 3 4 17 13 17 17 18 24 22 21 19 17 16 16 15 14 14 14 13 13 13 12 13 14 12 11 10 10 11 9 8 8
5 4 3 5 11 7 5 4 2 10 3 3 2 7 3 5 2 4 10 17 14 16 17 19 23 21 20 19 18 17 16 15 15 15 14 15 15 14 14 15 15 14 13 12 13 12 11 11 10
2 2 4 5 8 7 9 13 6 6 4 5 4 4 5 3 2 5 11 14 15 16 16 17 21 21 19 19 18 17 16 15 14 14 15 15 15 15 15 15 16 17 15 14 14 13 12 12 11
3 1 4 9 10 9 8 10 4 6 3 2 5 4 5 2 4 7 10 15 14 16 17 16 20 20 20 18 17 16 15 15 14 14 15 14 13 13 14 14 16 17 17 16 15 15 13 12 11
4 3 5 7 8 9 6 3 5 4 2 3 1 3 4 4 7 8 12 14 12 12 14 13 17 18 18 17 16 15 14 13 13 14 14 12 11 11 11 11 13 13 14 14 15 14 14 12 12
1 3 4 6 6 7 5 3 5 2 1 2 3 4 6 3 2 6 9 11 11 12 14 15 15 16 16 15 15 14 13 13 13 13 11 10 11 10 9 9 10 11 12 14 15 15 15 13 12
3 6 11 9 8 7 3 5 2 4 7 5 7 7 6 2 4 8 8 11 12 11 14 14 15 14 14 13 12 13 15 14 13 12 12 9 8 8 9 9 10 11 11 12 14 14 13 12 13
9 9 13 10 10 8 2 5 7 6 12 19 10 9 6 4 6 12 16 17 18 17 17 15 14 14 13 10 11 10 9 8 8 8 9 8 9 8 8 9 11 12 11 12 13 13 12 10 9
9 18 23 18 11 7 12 13 8 13 18 20 14 18 19 12 11 15 18 22 24 17 13 15 12 12 13 10 7 5 4 5 5 7 8 8 7 7 7 6 6 6 8 6 7 7 6 8 6
14 15 24 24 14 11 15 11 13 16 26 25 19 17 18 17 13 16 19 21 21 18 16 14 14 12 11 7 6 6 5 5 4 5 8 7 6 8 8 6 7 6 5 6 6 5 6 8 9
15 19 20 19 20 18 19 21 20 24 24 25 21 19 16 16 18 16 20 19 17 17 14 15 14 12 10 9 6 5 6 5 4 5 6 7 8 9 8 7 7 7 6 6 6 6 5 7 8
12 21 23 21 19 22 22 25 12 19 22 26 22 22 22 19 18 15 16 20 18 14 15 14 15 13 11 9 8 6 5 4 5 6 7 8 8 8 8 8 8 8 7 6 6 6 6 6 6
11 14 15 14 18 17 16 18 18 23 23 20 21 22 22 20 17 17 19 18 18 12 13 13 14 14 13 11 9 6 5 4 6 7 8 9 9 9 9 8 8 8 7 8 6 6 5 6 5
10 6 14 12 16 10 11 20 18 20 15 19 21 18 19 19 18 17 18 15 12 14 15 16 14 16 13 10 7 5 4 5 6 6 6 9 9 10 9 8 8 6 7 7 6 6 6 6 5
8 11 16 12 11 12 14 17 12 13 12 17 21 21 21 21 20 16 15 14 15 17 16 16 16 17 14 9 5 4 5 5 6 6 5 7 8 9 9 7 6 6 6 6 5 5 6 5 6
18 11 10 13 10 9 15 18 17 20 15 18 20 18 18 17 22 14 10 11 14 16 17 17 14 14 12 7 4 3 4 5 6 6 5 7 5 7 8 7 7 6 6 5 5 7 6 6 6
18 20 22 16 7 8 16 17 20 20 16 18 19 18 18 18 16 7 2 8 12 13 16 17 16 13 10 6 4 4 5 5 5 5 6 6 6 6 8 6 6 6 7 6 7 7 8 5 6
23 23 23 14 11 7 15 19 18 18 19 17 20 20 19 17 10 1 3 8 12 14 16 17 15 13 9 6 4 2 2 3 3 3 4 5 5 5 7 6 6 6 5 6 8 9 6 3 7
29 29 24 19 4 8 9 21 20 14 13 16 17 17 16 14 10 6 8 10 12 15 17 15 14 12 9 7 4 3 3 3 3 3 3 2 4 3 5 5 5 5 6 6 8 8 8 5 6
26 23 23 17 8 12 2 17 19 17 20 16 16 12 9 5 3 7 10 12 14 16 14 14 13 11 9 8 5 5 3 2 1 2 1 3 3 4 5 5 5 6 6 7 8 7 5 7 7
21 15 17 15 12 12 17 12 15 5 18 23 18 13 6 0 4 9 11 14 16 16 14 12 12 11 9 7 5 4 4 2 1 2 3 3 2 4 4 5 5 6 6 7 8 7 5 3 4
11 12 12 7 8 15 16 13 22 13 18 15 14 11 1 4 7 10 11 15 16 14 13 12 12 10 9 7 5 5 4 3 1 1 1 2 2 3 5 5 5 6 6 7 8 7 6 4 4
23 14 8 10 11 10 11 13 19 8 13 16 17 10 3 6 9 12 16 17 16 15 14 12 12 11 8 7 5 5 4 2 1 2 1 0 2 3 4 5 6 6 6 7 7 7 5 4 4
27 23 10 14 13 8 12 12 11 17 23 21 16 11 6 9 10 13 18 17 16 15 14 12 11 10 9 6 5 4 4 1 0 1 0 1 1 1 3 5 5 6 7 8 7 5 4 4 4
24 23 16 10 1 4 6 8 13 15 14 12 16 11 8 11 13 16 17 16 15 14 14 12 11 10 8 6 5 4 3 1 1 2 2 0 1 1 4 5 6 6 7 7 8 5 6 4 4
20 22 13 11 13 9 5 7 9 9 14 10 10 11 9 12 14 16 17 16 14 14 12 10 10 10 9 6 5 4 3 2 3 2 3 3 2 4 5 6 6 6 7 7 6 5 6 7 5
12 23 8 9 7 7 4 6 8 16 15 15 12 10 13 16 16 17 17 15 14 13 12 11 9 9 8 6 5 4 3 3 4 4 3 4 3 4 5 7 7 8 8 7 6 6 7 7 7
22 17 22 12 9 9 4 6 2 9 3 3 6 9 13 14 16 17 18 16 14 14 13 11 10 8 8 7 5 4 4 4 5 4 4 4 5 5 5 6 6 7 9 8 7 8 8 7 6
Wind_Direction
140 147 132 180 214 274 250 227 261 248 237 179 133 189 208 212 188 298 83 187 170 164 165 173 176 182 188 189 189 192 195 196 199 203 207 210 214 223 227 225 216 233 255 276 284 273 261 256 249
151 148 186 152 234 227 215 218 217 293 319 287 215 196 216 249 226 270 196 176 175 164 168 179 182 185 188 191 191 194 200 202 205 212 220 224 228 230 233 235 236 234 238 254 267 272 267 256 248
163 214 225 219 203 222 221 207 227 311 309 246 251 248 182 222 216 231 168 162 164 171 173 184 184 188 188 191 192 196 202 205 211 220 228 232 235 241 239 241 241 244 244 246 248 251 251 256 253
178 188 134 239 235 242 238 202 301 324 11 180 260 262 246 239 203 199 152 166 166 176 179 184 186 190 190 190 195 198 203 208 215 223 231 236 241 243 245 246 244 249 250 250 254 253 259 252 249
174 189 228 249 251 258 248 268 255 281 276 301 192 254 259 238 206 163 162 172 177 179 186 187 191 188 191 195 196 201 207 211 217 226 234 240 244 241 247 255 247 251 250 250 254 259 262 255 252
150 283 220 243 245 251 261 251 223 242 237 291 189 258 256 31 205 180 177 185 189 180 186 190 189 189 192 195 198 204 210 214 221 231 239 247 252 247 250 254 252 258 254 252 253 254 263 267 263
198 184 255 262 265 267 244 184 194 180 347 63 342 249 284 286 226 189 190 188 190 186 187 188 191 193 192 195 199 205 214 219 224 231 239 246 246 249 254 262 264 263 262 261 260 267 264 262 261
222 223 234 238 254 268 197 190 159 37 16 93 191 251 305 343 212 192 201 197 190 186 196 192 195 194 196 197 199 204 213 221 228 235 240 244 248 251 255 264 259 271 273 273 268 266 263 259 258
160 234 244 239 213 244 206 223 65 344 289 279 242 245 282 312 168 181 200 211 203 200 197 202 196 198 198 196 198 201 219 227 230 234 233 233 243 245 250 255 267 264 267 269 270 267 273 270 259
202 223 237 235 237 260 281 310 326 285 296 285 262 258 262 267 235 216 206 215 210 204 201 199 198 197 198 195 197 204 215 227 233 234 235 237 239 239 245 253 255 261 268 264 261 268 278 269 258
204 231 235 262 254 270 282 280 294 292 289 281 296 305 308 283 246 234 230 220 218 210 202 200 191 193 193 194 187 196 210 222 227 233 231 233 237 237 236 247 249 251 249 253 255 261 261 267 272
215 230 245 253 269 280 275 302 272 273 268 280 290 283 287 287 265 236 236 230 221 214 201 186 188 184 186 186 190 196 212 210 221 233 233 232 233 235 239 244 248 242 250 253 250 253 262 257 254
216 228 240 250 269 265 274 269 268 283 280 279 280 281 268 268 267 249 239 238 228 225 204 185 179 180 177 183 186 207 216 213 231 241 239 232 236 236 233 237 244 242 242 248 246 246 253 250 248
211 229 243 252 263 270 267 268 278 264 274 278 284 275 275 270 264 263 239 234 225 212 199 181 178 178 172 183 192 206 212 217 231 240 237 226 234 235 237 235 232 239 237 235 241 237 241 238 241
243 238 240 238 245 255 271 270 254 264 267 277 272 275 276 269 269 246 243 232 222 209 178 185 178 176 174 183 198 207 216 220 239 246 241 235 233 237 240 235 236 236 232 231 235 233 229 230 224
208 206 228 226 231 244 215 270 277 270 275 280 281 277 278 275 269 260 247 235 214 182 174 179 181 172 174 185 191 209 217 230 240 243 240 239 241 240 240 242 239 237 222 216 222 226 220 222 217
213 230 217 236 228 245 214 274 256 271 284 285 280 280 278 282 283 260 251 224 186 174 169 175 175 169 174 180 186 204 234 236 241 238 233 239 238 236 235 239 241 216 206 213 220 222 228 211 209
217 227 236 233 226 223 238 253 274 281 286 277 281 284 279 272 269 289 242 201 178 173 169 166 166 160 163 159 168 209 243 242 235 230 231 237 235 239 242 236 224 208 213 209 210 219 209 216 205
254 234 238 233 227 245 250 268 278 285 287 281 281 280 273 268 281 314 255 180 171 167 159 158 156 158 154 155 174 213 230 226 230 237 236 244 252 249 235 232 217 208 216 217 209 211 192 189 171
229 234 237 247 259 248 278 280 280 284 282 284 283 276 269 275 283 302 154 168 170 161 160 149 153 156 161 162 171 190 217 240 263 253 246 249 268 253 221 208 209 203 201 194 191 191 175 165 176
224 229 236 245 255 244 290 280 275 279 282 291 278 261 272 274 272 182 160 165 155 156 154 150 150 154 161 165 147 157 218 222 230 225 224 263 271 219 199 198 214 204 196 188 188 193 190 161 179
230 227 240 240 233 256 237 286 278 290 286 284 283 274 273 261 160 158 154 151 157 155 150 145 149 154 160 163 167 202 237 239 202 274 295 280 255 210 194 212 198 192 190 182 184 196 196 160 161
233 221 215 228 247 275 255 275 272 222 282 280 281 280 306 105 153 160 155 152 158 149 150 149 151 155 155 168 192 198 202 187 189 243 276 278 251 223 207 199 167 178 192 189 184 187 181 193 154
205 195 163 183 235 244 250 241 280 255 251 265 263 265 33 87 123 137 142 147 152 149 147 152 154 155 163 175 182 194 171 158 229 266 267 301 241 210 205 199 180 177 183 186 186 186 187 191 175
195 195 182 209 207 240 227 217 250 251 245 252 265 275 155 140 144 144 151 157 152 154 155 157 159 160 168 181 175 157 154 168 274 308 310 322 241 188 185 187 178 181 185 181 185 179 174 188 188
191 189 216 217 223 232 200 229 259 230 238 237 245 274 155 157 154 159 158 158 157 159 161 161 161 160 176 171 156 149 161 171 294 354 120 142 219 152 166 171 168 173 178 172 171 168 159 157 148
198 212 213 240 104 224 189 239 266 246 244 231 227 221 191 167 159 161 160 162 162 167 165 162 165 167 169 164 150 163 168 176 72 105 108 90 34 116 144 148 155 158 170 164 158 161 144 131 138
186 176 188 212 210 218 207 239 239 222 230 217 214 202 171 159 159 163 168 165 170 169 163 166 171 167 166 156 157 165 159 155 109 107 81 77 76 109 136 148 150 141 143 145 156 144 137 143 140
179 189 194 199 226 209 229 228 216 227 212 221 216 189 166 166 168 166 170 167 171 167 166 173 166 169 165 154 157 158 147 129 123 114 90 83 108 114 139 160 155 143 137 133 132 132 133 138 135
198 194 194 197 179 219 239 232 50 242 259 227 166 156 159 163 164 168 169 166 172 173 174 175 172 177 166 154 161 162 138 128 119 125 96 89 103 100 126 150 148 141 133 130 135 130 136 139 144